FW8840 Weather Reports


time (UTC)temp
C
wind
direction
speed
KPH
gust
KPH
rain 1hr
cm
rain 24hr
cm
rain mn
cm
humidity
%
barometer
mb
20260906082526 31 296 9.7 16.1 0.00 0.00 0.00 37 1018.3
20260906081525 31 311 11.3 14.5 0.00 0.00 0.00 37 1018.3
20260906080526 31 321 9.7 17.7 0.00 0.00 0.00 38 1018.3
20260906075525 31 328 11.3 19.3 0.00 0.00 0.00 38 1018.3
20260906074545 30 315 11.3 19.3 0.00 0.00 0.00 40 1018.3
20260906073526 28 331 6.4 14.5 0.00 0.00 0.00 45 1018.3
20260906072525 27 301 6.4 11.3 0.00 0.00 0.00 53 1018.3
20260906071525 27 300 6.4 14.5 0.00 0.00 0.00 55 1018.2
20260906070525 26 282 6.4 11.3 0.00 0.00 0.00 56 1018.2
20260906065525 26 280 6.4 11.3 0.00 0.00 0.00 58 1018.1
20260906064545 25 279 6.4 11.3 0.00 0.00 0.00 62 1017.9
20260906063525 25 279 6.4 14.5 0.00 0.00 0.00 65 1017.9
20260906062525 25 280 6.4 9.7 0.00 0.00 0.00 67 1017.9
20260906061557 23 340 1.6 6.4 0.00 0.00 0.00 68 1017.8
20260906060525 23 275 3.2 9.7 0.00 0.00 0.00 71 1017.7
20260906055525 23 296 4.8 9.7 0.00 0.00 0.00 72 1017.8
20260906054546 22 286 4.8 6.4 0.00 0.00 0.00 74 1017.8
20260906053525 22 270 4.8 9.7 0.00 0.00 0.00 76 1017.7
20260906052525 22 280 8.0 11.3 0.00 0.00 0.00 75 1017.7
20260906051525 21 202 1.6 3.2 0.00 0.00 0.00 73 1017.5
20260906050525 20 202 1.6 3.2 0.00 0.00 0.00 77 1017.5
20260906045525 19 202 6.4 6.4 0.00 0.00 0.00 78 1017.3
20260906044525 18 225 6.4 6.4 0.00 0.00 0.00 79 1017.2
20260906043525 18 206 6.4 6.4 0.00 0.00 0.00 79 1017.1
20260906042524 17 180 4.8 6.4 0.00 0.00 0.00 79 1017.0
20260906041525 18 180 3.2 6.4 0.00 0.00 0.00 77 1016.9
20260906040525 18 202 3.2 4.8 0.00 0.00 0.00 74 1016.9
20260906035524 18 202 6.4 6.4 0.00 0.00 0.00 73 1016.8
20260906034525 18 202 6.4 6.4 0.00 0.00 0.00 71 1016.6
20260906033544 18 202 4.8 6.4 0.00 0.00 0.00 69 1016.6
20260906032524 18 192 4.8 6.4 0.00 0.00 0.00 66 1016.5
20260906031526 18 202 8.0 9.7 0.00 0.00 0.00 65 1016.6
20260906030544 19 192 6.4 8.0 0.00 0.00 0.00 63 1016.5
20260906025525 19 211 6.4 9.7 0.00 0.00 0.00 62 1016.5
20260906024524 19 202 8.0 11.3 0.00 0.00 0.00 61 1016.4
20260906023544 19 202 8.0 8.0 0.00 0.00 0.00 61 1016.4
20260906022524 18 202 9.7 11.3 0.00 0.00 0.00 61 1016.3
20260906021544 18 204 8.0 11.3 0.00 0.00 0.00 63 1016.3
20260906020524 18 180 6.4 6.4 0.00 0.00 0.00 64 1016.3
20260906015526 19 102 1.6 3.2 0.00 0.00 0.00 63 1016.3
20260906014524 20 102 0.0 1.6 0.00 0.00 0.00 60 1016.4
20260906013523 20 225 4.8 9.7 0.00 0.00 0.00 59 1016.2
20260906012524 20 225 6.4 6.4 0.00 0.00 0.00 58 1016.2
20260906011524 20 197 8.0 9.7 0.00 0.00 0.00 59 1016.2
20260906010525 20 200 6.4 9.7 0.00 0.00 0.00 60 1016.2
20260906005544 20 202 6.4 6.4 0.00 0.00 0.00 59 1016.3
20260906004544 20 202 4.8 6.4 0.00 0.00 0.00 59 1016.3
20260906003528 20 199 6.4 6.4 0.00 0.00 0.00 59 1016.3
20260906002524 20 207 8.0 9.7 0.00 0.00 0.00 59 1016.3
20260906001544 20 197 6.4 9.7 0.00 0.00 0.00 59 1016.3
20260906000523 20 198 6.4 9.7 0.00 0.00 0.00 60 1016.3
20260905235524 20 213 6.4 6.4 0.00 0.00 0.00 60 1016.3
20260905234524 20 196 4.8 6.4 0.00 0.00 0.00 60 1016.5
20260905233524 21 202 4.8 6.4 0.00 0.00 0.00 59 1016.5
20260905232524 21 202 3.2 6.4 0.00 0.00 0.00 58 1016.4
20260905231525 20 202 9.7 12.9 0.00 0.00 0.00 58 1016.5
20260905230523 20 203 6.4 9.7 0.00 0.00 0.00 60 1016.5
20260905225523 20 202 6.4 6.4 0.00 0.00 0.00 61 1016.7
20260905224524 21 202 4.8 6.4 0.00 0.00 0.00 61 1016.7
20260905223525 21 202 4.8 6.4 0.00 0.00 0.00 59 1016.6
20260905222523 21 201 6.4 9.7 0.00 0.00 0.00 59 1016.6
20260905221524 21 202 8.0 9.7 0.00 0.00 0.00 61 1016.5
20260905220524 21 199 6.4 8.0 0.00 0.00 0.00 61 1016.7
20260905215523 21 202 6.4 6.4 0.00 0.00 0.00 61 1016.7
20260905214544 21 194 4.8 6.4 0.00 0.00 0.00 61 1016.8
20260905213544 21 180 4.8 8.0 0.00 0.00 0.00 60 1016.8
20260905212524 21 202 6.4 11.3 0.00 0.00 0.00 60 1016.9
20260905211523 21 202 6.4 8.0 0.00 0.00 0.00 61 1016.9
20260905210544 21 202 6.4 8.0 0.00 0.00 0.00 60 1016.8
20260905205526 21 202 4.8 6.4 0.00 0.00 0.00 61 1017.0
20260905204544 21 202 3.2 6.4 0.00 0.00 0.00 58 1017.0
20260905203545 21 202 3.2 6.4 0.00 0.00 0.00 57 1016.9
20260905202547 22 202 4.8 6.4 0.00 0.00 0.00 55 1016.9
20260905201524 22 202 3.2 6.4 0.00 0.00 0.00 54 1016.9
20260905200523 22 202 4.8 6.4 0.00 0.00 0.00 54 1016.9
20260905195525 22 202 3.2 4.8 0.00 0.00 0.00 54 1017.0
20260905194523 22 202 3.2 6.4 0.00 0.00 0.00 54 1016.9
20260905193523 22 202 6.4 6.4 0.00 0.00 0.00 53 1017.0
20260905192525 23 202 6.4 8.0 0.00 0.00 0.00 54 1017.0
20260905191523 23 202 6.4 9.7 0.00 0.00 0.00 54 1017.1
20260905190523 23 202 6.4 6.4 0.00 0.00 0.00 53 1017.1
20260905185525 24 197 4.8 6.4 0.00 0.00 0.00 52 1016.9
20260905184544 25 193 4.8 6.4 0.00 0.00 0.00 51 1016.9
20260905183547 26 180 3.2 6.4 0.00 0.00 0.00 49 1016.8
20260905182523 26 166 3.2 6.4 0.00 0.00 0.00 46 1016.7
20260905181523 26 135 4.8 6.4 0.00 0.00 0.00 46 1016.6
20260905180543 25 118 6.4 11.3 0.00 0.00 0.00 50 1016.6
20260905175523 25 168 4.8 6.4 0.00 0.00 0.00 50 1016.4
20260905174523 26 173 8.0 11.3 0.00 0.00 0.00 49 1016.4
20260905173523 26 179 8.0 14.5 0.00 0.00 0.00 48 1016.2
20260905172523 26 183 8.0 11.3 0.00 0.00 0.00 47 1016.2
20260905171523 27 203 8.0 11.3 0.00 0.00 0.00 46 1016.2
20260905170525 27 186 8.0 12.9 0.00 0.00 0.00 45 1016.0
20260905165530 28 137 9.7 14.5 0.00 0.00 0.00 45 1016.0
20260905164522 28 183 9.7 14.5 0.00 0.00 0.00 44 1016.0
20260905163530 30 172 8.0 11.3 0.00 0.00 0.00 44 1016.0
20260905162523 30 174 9.7 14.5 0.00 0.00 0.00 44 1016.1
20260905161523 30 180 11.3 16.1 0.00 0.00 0.00 42 1016.1
20260905160522 31 160 9.7 17.7 0.00 0.00 0.00 37 1016.0
20260905155523 31 184 8.0 11.3 0.00 0.00 0.00 38 1016.0
20260905154523 31 191 8.0 14.5 0.00 0.00 0.00 41 1015.9
20260905153523 31 185 12.9 19.3 0.00 0.00 0.00 40 1015.9
20260905152525 31 186 12.9 17.7 0.00 0.00 0.00 40 1015.8
20260905151523 32 206 12.9 17.7 0.00 0.00 0.00 39 1015.9
20260905150522 32 200 11.3 17.7 0.00 0.00 0.00 40 1015.8
20260905145523 33 206 9.7 14.5 0.00 0.00 0.00 36 1015.7
20260905144523 33 241 6.4 14.5 0.00 0.00 0.00 34 1015.8
20260905143524 34 246 3.2 9.7 0.00 0.00 0.00 31 1016.0
20260905142523 34 306 0.0 6.4 0.00 0.00 0.00 31 1016.0
20260905141523 34 252 4.8 9.7 0.00 0.00 0.00 30 1016.1
20260905140523 34 292 6.4 14.5 0.00 0.00 0.00 30 1016.0
20260905135523 34 292 8.0 12.9 0.00 0.00 0.00 29 1016.1
20260905134523 34 278 4.8 11.3 0.00 0.00 0.00 30 1016.3
20260905133523 34 289 8.0 11.3 0.00 0.00 0.00 28 1016.4
20260905132522 34 283 8.0 14.5 0.00 0.00 0.00 28 1016.5
20260905131522 33 273 4.8 14.5 0.00 0.00 0.00 28 1016.6
20260905130523 33 273 8.0 14.5 0.00 0.00 0.00 28 1016.6
20260905125522 33 299 9.7 14.5 0.00 0.00 0.00 27 1016.8
20260905124522 33 279 8.0 14.5 0.00 0.00 0.00 28 1016.9
20260905123523 33 266 9.7 16.1 0.00 0.00 0.00 28 1017.0
20260905122524 33 261 8.0 12.9 0.00 0.00 0.00 28 1017.1
20260905121522 33 322 6.4 12.9 0.00 0.00 0.00 28 1017.3
20260905120542 33 275 6.4 14.5 0.00 0.00 0.00 28 1017.4
20260905115523 33 278 6.4 12.9 0.00 0.00 0.00 29 1017.5
20260905114523 33 283 8.0 17.7 0.00 0.00 0.00 31 1017.6
20260905113522 33 290 9.7 14.5 0.00 0.00 0.00 32 1017.6
20260905112522 33 278 8.0 16.1 0.00 0.00 0.00 32 1017.7
20260905111543 33 281 6.4 14.5 0.00 0.00 0.00 32 1017.8
20260905110522 33 262 6.4 14.5 0.00 0.00 0.00 33 1017.8
20260905105623 32 273 6.4 9.7 0.00 0.00 0.00 34 1017.8
20260905104523 32 267 8.0 14.5 0.00 0.00 0.00 35 1018.0
20260905103522 32 280 6.4 9.7 0.00 0.00 0.00 36 1017.9
20260905102542 32 317 9.7 14.5 0.00 0.00 0.00 37 1018.1
20260905101523 32 289 8.0 14.5 0.00 0.00 0.00 36 1018.3
20260905100523 31 323 8.0 14.5 0.00 0.00 0.00 36 1018.4
20260905095548 31 298 8.0 11.3 0.00 0.00 0.00 37 1018.5
20260905094542 31 290 8.0 14.5 0.00 0.00 0.00 41 1018.6
20260905093522 31 280 8.0 14.5 0.00 0.00 0.00 41 1018.6
20260905092522 31 311 8.0 16.1 0.00 0.00 0.00 41 1018.7
20260905091522 31 331 6.4 12.9 0.00 0.00 0.00 42 1018.8
20260905090523 30 309 4.8 9.7 0.00 0.00 0.00 42 1018.8
20260905085522 30 274 9.7 14.5 0.00 0.00 0.00 44 1018.8
20260905084522 30 284 8.0 12.9 0.00 0.00 0.00 46 1018.9
20260905083522 30 301 8.0 11.3 0.00 0.00 0.00 45 1019.0